TimeCDT,TemperatureF,Dew PointF,Humidity,Sea Level PressureIn,VisibilityMPH,Wind Direction,Wind SpeedMPH,Gust SpeedMPH,PrecipitationIn,Events,Conditions,WindDirDegrees,DateUTC
12:53 AM,37.0,30.9,79,29.40,10.0,SW,12.7,24.2,N/A,,Overcast,230,2013-04-19 05:53:00
1:53 AM,36.0,30.0,79,29.39,10.0,WSW,16.1,25.3,N/A,,Overcast,240,2013-04-19 06:53:00
2:46 AM,35.6,30.2,81,29.37,10.0,WSW,13.8,23.0,N/A,,Overcast,240,2013-04-19 07:46:00
2:53 AM,35.1,30.0,82,29.39,10.0,WSW,15.0,25.3,N/A,,Overcast,240,2013-04-19 07:53:00
3:29 AM,35.6,28.4,75,29.37,-9999.0,WSW,11.5,19.6,N/A,,Overcast,240,2013-04-19 08:29:00
3:53 AM,35.1,28.9,78,29.39,10.0,WSW,11.5,21.9,N/A,,Mostly Cloudy,240,2013-04-19 08:53:00
4:01 AM,35.6,28.4,75,29.38,10.0,WSW,12.7,21.9,N/A,,Overcast,250,2013-04-19 09:01:00
4:53 AM,35.1,28.9,78,29.39,10.0,WSW,9.2,18.4,0.00,,Overcast,240,2013-04-19 09:53:00
5:05 AM,35.6,28.4,75,29.37,10.0,WSW,11.5,20.7,N/A,,Overcast,240,2013-04-19 10:05:00
5:49 AM,35.6,28.4,75,29.37,10.0,WSW,8.1,20.7,0.00,Snow,Light Snow,240,2013-04-19 10:49:00
5:53 AM,35.1,28.0,76,29.39,9.0,WSW,11.5,21.9,0.00,Snow,Light Snow,240,2013-04-19 10:53:00
6:00 AM,35.6,26.6,70,29.38,9.0,WSW,9.2,21.9,0.00,,Overcast,240,2013-04-19 11:00:00
6:53 AM,35.1,28.0,76,29.40,10.0,WSW,11.5,21.9,0.00,Snow,Light Snow,250,2013-04-19 11:53:00
7:45 AM,35.6,26.6,70,29.39,10.0,WSW,10.4,31.1,0.00,,Mostly Cloudy,250,2013-04-19 12:45:00
7:53 AM,35.1,27.0,72,29.41,9.0,WSW,12.7,20.7,0.00,Snow,Light Snow,250,2013-04-19 12:53:00
8:53 AM,36.0,28.0,73,29.42,9.0,West,9.2,23.0,0.00,Snow,Light Snow,270,2013-04-19 13:53:00
9:23 AM,35.6,28.4,75,29.42,9.0,West,9.2,25.3,0.00,Snow,Light Snow,280,2013-04-19 14:23:00
9:34 AM,35.6,26.6,70,29.42,9.0,West,8.1,25.3,N/A,Snow,Light Snow,280,2013-04-19 14:34:00
9:43 AM,35.6,28.4,75,29.43,9.0,West,15.0,24.2,0.00,Snow,Light Snow,280,2013-04-19 14:43:00
9:53 AM,37.0,28.0,70,29.45,9.0,West,13.8,21.9,0.00,Snow,Light Snow,260,2013-04-19 14:53:00
10:45 AM,37.4,28.4,70,29.46,9.0,West,16.1,26.5,0.00,Snow,Light Snow,280,2013-04-19 15:45:00
10:53 AM,37.0,27.0,67,29.49,9.0,West,11.5,27.6,0.00,Snow,Light Snow,270,2013-04-19 15:53:00
11:22 AM,37.4,26.6,65,29.48,10.0,WNW,13.8,26.5,0.00,,Mostly Cloudy,290,2013-04-19 16:22:00
11:53 AM,37.0,27.0,67,29.51,9.0,West,9.2,29.9,0.00,Snow,Light Snow,260,2013-04-19 16:53:00
12:14 PM,35.6,28.4,75,29.50,2.0,WNW,15.0,26.5,0.00,Snow,Light Snow,290,2013-04-19 17:14:00
12:17 PM,35.6,28.4,75,29.50,4.0,WNW,10.4,26.5,0.00,Snow,Light Snow,290,2013-04-19 17:17:00
12:25 PM,35.6,28.4,75,29.50,6.0,WNW,13.8,20.7,0.00,Snow,Light Snow,290,2013-04-19 17:25:00
12:53 PM,37.9,25.0,60,29.53,9.0,West,10.4,21.9,0.00,Snow,Light Snow,280,2013-04-19 17:53:00
1:53 PM,36.0,27.0,70,29.57,2.5,West,17.3,26.5,0.00,Snow,Light Snow,280,2013-04-19 18:53:00
2:02 PM,37.4,28.4,70,29.55,8.0,WNW,15.0,27.6,0.00,Snow,Light Snow,290,2013-04-19 19:02:00
2:53 PM,37.0,25.0,62,29.60,9.0,West,17.3,27.6,0.00,Snow,Light Snow,280,2013-04-19 19:53:00
3:53 PM,37.0,23.0,57,29.64,9.0,WNW,12.7,25.3,0.00,Snow,Light Snow,290,2013-04-19 20:53:00
4:53 PM,35.1,25.0,67,29.68,9.0,West,12.7,27.6,0.00,Snow,Light Snow,280,2013-04-19 21:53:00
5:53 PM,37.0,24.1,59,29.72,10.0,WNW,13.8,23.0,0.00,,Mostly Cloudy,300,2013-04-19 22:53:00
6:53 PM,35.1,25.0,67,29.76,9.0,NW,10.4,24.2,0.00,Snow,Light Snow,310,2013-04-19 23:53:00
7:53 PM,35.1,25.0,67,29.80,10.0,West,6.9,-,0.00,,Mostly Cloudy,280,2013-04-20 00:53:00
8:53 PM,34.0,25.0,70,29.84,9.0,WNW,10.4,18.4,0.00,Snow,Light Snow,300,2013-04-20 01:53:00
9:53 PM,33.1,24.1,70,29.88,10.0,WNW,10.4,-,0.00,,Partly Cloudy,300,2013-04-20 02:53:00
10:53 PM,33.1,23.0,66,29.91,9.0,NNW,8.1,-,0.00,Snow,Light Snow,330,2013-04-20 03:53:00
11:53 PM,32.0,19.9,61,29.94,10.0,NW,8.1,18.4,0.00,,Mostly Cloudy,320,2013-04-20 04:53:00